Regional Weather Roundup
Issued by NWS

Home | Current Version | Previous Version | Text Only | Print | Product List | Glossary Off
Versions: 1 2 3 4 5 6 7 8 9 10 11 12 13 14 15 16 17 18 19 20 21 22 23 24 25 26 27 28 29 30 31 32 33 34 35 36 37 38 39 40 41 42 43 44 45 46 47 48 49 50

000
ASUS45 KTFX 272010
RWRMT
MONTANA REGIONAL WEATHER ROUNDUP
NATIONAL WEATHER SERVICE GREAT FALLS MT
200 PM MDT WED JUL 27 2016

NOTE: "FAIR" INDICATES FEW OR NO CLOUDS BELOW 12000 FEET WITH NO
SIGNIFICANT WEATHER AND/OR OBSTRUCTIONS TO VISIBILITY.

MTZ001>007-043-272100-
WEST OF THE DIVIDE

CITY           SKY/WX    TMP DP  RH WIND       PRES   REMARKS
KALISPELL      MOSUNNY   84  50  30 SE10      30.10F
MISSOULA       SUNNY     88  47  24 CALM      30.09F
BUTTE          MOSUNNY   81  38  21 N9        30.21F
MULLAN PASS    MOSUNNY   73  47  39 N3        30.28F
ANACONDA         N/A     81  45  28 N8        30.19S
DEER LODGE       N/A     82  43  24 CALM      30.20F
EUREKA           N/A     82  52  34 NW5       30.10F
HAMILTON         N/A     82  50  32 CALM      30.11F
LIBBY            N/A     88  48  25 W5        30.07F
RONAN            N/A     84  50  30 N6        30.15F
$$

MTZ008-052>055-272100-
SOUTHWEST MONTANA

CITY           SKY/WX    TMP DP  RH WIND       PRES   REMARKS
BOZEMAN        SUNNY     85  44  23 CALM      30.16F
DILLON         SUNNY     82  48  30 CALM      30.17F
W YELLOWSTONE  SUNNY     81  27  13 W9G21     30.29F
ENNIS          SUNNY     84  36  17 NW8G16    30.23F
THREE FORKS      N/A     84  84 100 NE7       30.13F HX 103
TWIN BRIDGES     N/A     85  44  23 NW5       30.14F
$$

MTZ009-010-012-014-046-048-049-054-272100-
EAST SLOPES AND CENTRAL MONTANA

CITY           SKY/WX    TMP DP  RH WIND       PRES   REMARKS
CUT BANK       MOSUNNY   78  51  38 CALM      30.19F
GREAT FALLS    SUNNY     81  50  33 N8        30.16F
MALMSTROM AFB  MOSUNNY   78  50  36 E9G18     30.16F
HELENA         SUNNY     84  49  29 VRB3      30.14F
CHOTEAU          N/A     79  48  34 NE9       30.20F
CONRAD           N/A     80  54  40 N1        30.20F
$$

MTZ011-013-016-021-045-047-050-051-272100-
NORTH CENTRAL MONTANA

CITY           SKY/WX    TMP DP  RH WIND       PRES   REMARKS
HAVRE          PTSUNNY   73  61  65 N8        30.16S
LEWISTOWN      SUNNY     77  55  46 VRB3      30.19F
N BAR RANCH    PTSUNNY   75  55  50 SE13      30.21S
$$

MTZ017>020-022>027-061-062-272100-
NORTHEAST MONTANA

CITY           SKY/WX    TMP DP  RH WIND       PRES   REMARKS
GLASGOW        CLOUDY    72  61  68 VRB7      30.13F
JORDAN           N/A     76  62  62 E9        30.13F
SIDNEY         LGT RAIN  68  62  81 NW6       30.15S
WOLF POINT     CLOUDY    72  62  71 E10       30.15F
PLENTYWOOD       N/A     66  57  72 CALM      30.18S
SCOBEY           N/A     68  52  56 E7        30.16S
$$

MTZ028>42-056>058-272100-
SOUTHCENTRAL AND SOUTHEAST MONTANA

CITY           SKY/WX    TMP DP  RH WIND       PRES   REMARKS
BAKER          CLOUDY    71  63  75 E7        30.15R
BILLINGS       MOSUNNY   82  50  32 E8        30.13F
LIVINGSTON     MOSUNNY   89  39  17 VRB7      30.14F
MILES CITY     PTSUNNY   79  60  52 CALM      30.10F
EKALAKA          N/A     74  57  55 E7        30.12R
FORSYTH          N/A     82  57  42 NE5       30.09F
LAUREL           N/A     85  53  33 NE7       30.11F
ROUNDUP          N/A     78  55  44 N12       30.04F
$$

REGIONAL REPORTS...DAKOTAS

CITY           SKY/WX    TMP DP  RH WIND       PRES   REMARKS
WILLISTON      LGT RAIN  68  59  73 N8        30.14S
MINOT          CLOUDY    77  58  51 NE9       30.13F
DICKINSON      CLOUDY    71  60  68 E6        30.12F
BEACH            N/A     73  59  60 SE7       30.17S
CROSBY         PTSUNNY   68  64  88 E5        30.18S
WATFORD CITY     N/A    N/A N/A N/A MISG        N/A
BISMARCK       CLOUDY    75  62  64 E7        30.11F
GRAND FORKS    MOSUNNY   77  59  53 N14G24    30.06S
FARGO          SUNNY     79  59  50 N17       30.04S
BUFFALO SD       N/A     63  59  87 E13       30.08F
RAPID CITY     PTSUNNY   77  60  55 N13       30.15R
$$

REGIONAL REPORTS...WYOMING/IDAHO/WASHINGTON

CITY           SKY/WX    TMP DP  RH WIND       PRES   REMARKS
GILLETTE       SUNNY     85  53  33 NE12      30.15F
SHERIDAN       MOSUNNY   87  53  31 MISG      30.13F
BUFFALO WY     SUNNY     84  50  30 N14G21    30.19F
CODY           SUNNY     81  46  30 N8        30.19F
YELLOWSTONE LA   N/A     71  42  35 VRB5      30.39F
IDAHO FALLS    SUNNY     88  35  15 CALM      30.17F
SALMON         SUNNY     82  46  28 W5        30.08F
BOISE          SUNNY     94  45  18 CALM      30.02F HX  90
SPOKANE        MOSUNNY   88  48  25 N5        30.07F
$$

REGIONAL REPORTS...ALBERTA

CITY           SKY/WX    TMP DP  RH WIND       PRES   REMARKS
EDMONTON       MOSUNNY   77  57  50 E5        30.12S
CALGARY        PTSUNNY   77  52  41 NE8       30.20F
LETHBRIDGE     PTSUNNY   75  57  53 VRB8G20   30.17F
WATERTON GATE    N/A     77  54  44 NE8         N/A
CARDSTON         N/A     77  55  47 NE3         N/A
MILK RIVER       N/A     75  54  46 NE2         N/A
ONEFOUR          N/A     75  54  46 NE5         N/A
$$

REGIONAL REPORTS...SASKATCHEWAN

CITY           SKY/WX    TMP DP  RH WIND       PRES   REMARKS
SWIFT CURRENT  PTSUNNY   73  54  49 VRB5      30.18S
REGINA         PTSUNNY   73  55  53 S7        30.16S
SASKATOON      MOSUNNY   79  50  36 SW10      30.18F
CYPRESS HILLS    N/A     68  55  64 NE5         N/A
VAL MARIE        N/A    N/A N/A N/A NE9         N/A
ROCKGLEN         N/A     68  57  68 SE10        N/A
$$



USA.gov is the U.S. government's official web portal to all federal, state and local government web resources and services.